CW6666 Weather Reports


Display with metric or nautical units.
time (UTC)temp
F
wind
direction
speed
MPH
gust
MPH
rain 1hr
in
rain 24hr
in
rain mn
in
humidity
%
barometer
mb
20140424160414 83 37 16.0 21.0 0.00 0.32 0.01 83 1006.9
20140424155828 82 36 18.0 21.0 0.00 0.32 0.01 84 1007.0
20140424155337 82 51 18.0 21.0 0.00 0.32 0.01 84 1007.0
20140424154844 83 32 15.0 19.0 0.00 0.32 0.01 85 1007.0
20140424154337 83 38 14.0 18.0 0.00 0.32 0.01 84 1007.1
20140424153827 83 36 15.0 18.0 0.00 0.32 0.01 84 1007.1
20140424153343 83 39 15.0 18.0 0.00 0.32 0.01 83 1007.1
20140424152829 82 44 16.0 18.0 0.00 0.32 0.01 83 1007.4
20140424152342 82 28 14.0 18.0 0.00 0.32 0.01 83 1007.4
20140424151849 82 32 14.0 18.0 0.00 0.32 0.01 83 1007.4
20140424151340 82 24 14.0 18.0 0.01 0.32 0.01 82 1007.5
20140424150825 82 33 14.0 18.0 0.01 0.32 0.01 82 1007.5
20140424150334 82 18 14.0 18.0 0.01 0.32 0.01 83 1007.5
20140424145838 82 30 14.0 18.0 0.01 0.32 0.01 83 1007.6
20140424145331 82 14 13.0 18.0 0.01 0.32 0.01 83 1007.6
20140424144900 82 33 12.0 18.0 0.01 0.32 0.01 85 1007.6
20140424144331 82 32 15.0 18.0 0.01 0.32 0.01 86 1007.9
20140424143838 82 19 14.0 19.0 0.01 0.32 0.01 86 1007.9
20140424143332 82 30 16.0 20.0 0.01 0.32 0.01 87 1007.9
20140424142858 81 32 15.0 20.0 0.01 0.32 0.01 88 1008.0
20140424142327 80 35 12.0 18.0 0.01 0.32 0.01 90 1008.0
20140424141837 79 24 13.0 17.0 0.01 0.32 0.01 93 1008.0
20140424141347 78 16 5.0 11.0 0.01 0.31 0.00 93 1008.1
20140424140833 78 12 0.0 7.0 0.01 0.31 0.00 93 1008.1
20140424140327 78 17 0.0 1.0 0.03 0.31 0.00 93 1008.1
20140424135916 78 323 0.0 0.0 0.08 0.31 0.31 93 1008.5
20140424135338 78 336 0.0 0.0 0.10 0.31 0.31 93 1008.5
20140424134830 78 336 0.0 0.0 0.11 0.31 0.31 93 1008.5
20140424132907 78 76 0.0 5.0 0.14 0.31 0.31 93 1009.0
20140424132335 78 135 0.0 11.0 0.15 0.31 0.31 93 1009.0
20140424131923 78 61 5.0 11.0 0.15 0.31 0.31 93 1009.0
20140424131407 78 80 2.0 4.0 0.14 0.30 0.30 93 1009.3
20140424130843 78 37 0.0 6.0 0.15 0.30 0.30 93 1009.3
20140424130414 78 30 4.0 7.0 0.14 0.29 0.29 93 1009.3
20140424125837 78 32 4.0 7.0 0.08 0.23 0.23 93 1009.5
20140424124401 78 19 0.0 4.0 0.04 0.19 0.19 93 1009.5
20140424123828 77 14 2.0 6.0 0.04 0.18 0.18 93 1009.5
20140424123405 77 10 3.0 6.0 0.04 0.18 0.18 93 1009.5
20140424122832 77 355 0.0 4.0 0.04 0.17 0.17 92 1009.5
20140424122402 77 355 0.0 4.0 0.03 0.16 0.16 92 1009.5
20140424121839 78 299 0.0 4.0 0.03 0.16 0.16 92 1009.5
20140424115854 78 306 1.0 5.0 0.02 0.15 0.15 92 1009.5
20140424115344 78 339 1.0 6.0 0.02 0.15 0.15 92 1009.5
20140424114828 78 28 4.0 6.0 0.02 0.15 0.15 92 1009.5
20140424113900 78 17 5.0 10.0 0.02 0.14 0.14 92 1009.4
20140424113422 78 19 5.0 9.0 0.02 0.14 0.14 91 1009.4
20140424112910 78 21 7.0 14.0 0.03 0.13 0.13 92 1009.3
20140424112339 78 20 8.0 16.0 0.03 0.13 0.13 92 1009.3
20140424111352 78 32 12.0 18.0 0.04 0.13 0.13 91 1009.1
20140424110841 79 37 14.0 18.0 0.04 0.13 0.13 91 1009.1
20140424105913 78 46 14.0 16.0 0.06 0.13 0.13 92 1009.1
20140424105336 78 46 13.0 17.0 0.07 0.13 0.13 92 1009.1
20140424104832 79 57 13.0 19.0 0.09 0.13 0.13 92 1009.1
20140424104406 79 42 16.0 19.0 0.12 0.13 0.13 92 1009.0
20140424103854 79 34 12.0 18.0 0.11 0.12 0.12 92 1009.0
20140424103402 79 38 15.0 18.0 0.11 0.12 0.12 92 1009.0
20140424102840 79 31 14.0 15.0 0.09 0.10 0.10 91 1009.0
20140424101909 79 84 7.0 12.0 0.09 0.09 0.09 92 1009.0
20140424101343 78 41 7.0 10.0 0.09 0.09 0.09 92 1009.1
20140424100831 78 58 7.0 14.0 0.09 0.09 0.09 91 1009.1
20140424100403 78 39 11.0 14.0 0.08 0.08 0.08 91 1009.1
20140424095839 78 34 11.0 14.0 0.07 0.07 0.07 91 1009.0
20140424094355 79 48 15.0 18.0 0.01 0.01 0.01 91 1008.9
20140424093839 79 46 14.0 19.0 0.01 0.01 0.01 90 1008.9
20140424092358 80 36 14.0 19.0 0.01 0.01 0.01 88 1008.5
20140424091843 80 40 14.0 20.0 0.00 0.00 0.00 87 1008.5
20140424090357 81 60 16.0 20.0 0.00 0.00 0.00 87 1008.2
20140424085856 81 52 18.0 21.0 0.00 0.00 0.00 88 1008.0
20140424085335 81 59 18.0 21.0 0.00 0.00 0.00 88 1008.0
20140424084844 81 40 19.0 20.0 0.00 0.00 0.00 88 1008.0
20140424084410 81 42 19.0 20.0 0.00 0.00 0.00 87 1007.9
20140424083856 81 48 18.0 21.0 0.00 0.00 0.00 87 1007.9
20140424082919 81 40 18.0 21.0 0.00 0.00 0.00 88 1007.6
20140424082326 81 74 13.0 19.0 0.00 0.00 0.00 89 1007.6
20140424081918 82 69 16.0 19.0 0.00 0.00 0.00 88 1007.6
20140424081408 82 59 17.0 19.0 0.00 0.00 0.00 87 1007.3
20140424075919 84 32 13.0 14.0 0.00 0.00 0.00 80 1007.0
20140424075349 85 19 10.0 15.0 0.00 0.00 0.00 79 1007.0
20140424074837 84 41 12.0 15.0 0.00 0.00 0.00 79 1007.0
20140424073901 85 26 13.0 16.0 0.00 0.00 0.00 78 1006.9
20140424073345 85 33 14.0 16.0 0.00 0.00 0.00 78 1006.9
20140424072825 85 28 13.0 15.0 0.00 0.00 0.00 78 1006.9
20140424072358 85 32 12.0 14.0 0.00 0.00 0.00 79 1006.9
20140424071828 84 34 13.0 15.0 0.00 0.00 0.00 78 1006.9
20140424071407 84 32 14.0 16.0 0.00 0.00 0.00 78 1006.7
20140424070903 85 35 13.0 17.0 0.00 0.00 0.00 78 1006.7
20140424070359 85 45 13.0 17.0 0.00 0.00 0.00 77 1006.7
20140424065845 85 52 15.0 17.0 0.00 0.00 0.00 78 1006.5
20140424064918 85 47 13.0 16.0 0.00 0.00 0.00 78 1006.5
20140424064401 85 42 14.0 16.0 0.00 0.00 0.00 78 1006.5
20140424063832 85 31 14.0 16.0 0.00 0.00 0.00 77 1006.5
20140424062920 86 39 14.0 16.0 0.00 0.00 0.00 78 1006.5
20140424062343 85 42 13.0 16.0 0.00 0.00 0.00 78 1006.5
20140424061830 85 23 13.0 16.0 0.00 0.00 0.00 77 1006.5
20140424060905 86 42 13.0 16.0 0.00 0.00 0.00 76 1006.7
20140424060336 86 43 14.0 15.0 0.00 0.00 0.00 76 1006.7
20140424055919 86 40 13.0 14.0 0.00 0.00 0.00 76 1006.5
20140424055349 86 43 13.0 14.0 0.00 0.00 0.00 77 1006.5
20140424054836 86 49 13.0 15.0 0.00 0.00 0.00 76 1006.5
20140424054420 86 44 13.0 16.0 0.00 0.00 0.00 77 1006.6
20140424053858 86 42 13.0 16.0 0.00 0.00 0.00 76 1006.6
20140424053331 86 38 14.0 15.0 0.00 0.00 0.00 78 1006.6
20140424052403 86 41 15.0 16.0 0.00 0.00 0.00 77 1006.6
20140424051831 86 48 14.0 16.0 0.00 0.00 0.00 77 1006.6
20140424050827 86 57 15.0 16.0 0.00 0.00 0.00 76 1006.7
20140424050332 86 44 15.0 16.0 0.00 0.00 0.00 78 1006.7
20140424045413 87 34 13.0 14.0 0.00 0.00 0.00 78 1006.7
20140424044404 87 54 14.0 15.0 0.00 0.00 0.00 76 1006.7
20140424043859 87 46 14.0 15.0 0.00 0.00 0.00 78 1006.7
20140424043344 87 46 13.0 14.0 0.00 0.00 0.00 76 1006.7
20140424042832 87 60 12.0 14.0 0.00 0.00 0.00 77 1006.9
20140424041853 87 44 13.0 14.0 0.00 0.00 0.00 77 1006.9
20140424041350 87 48 13.0 14.0 0.00 0.00 0.00 76 1007.1
20140424040838 87 42 13.0 13.0 0.00 0.00 0.00 76 1007.1
20140424040420 87 40 11.0 13.0 0.00 0.00 0.00 75 1007.1
20140424035847 87 42 11.0 14.0 0.00 0.00 0.00 76 1007.4
20140424035341 87 43 12.0 14.0 0.00 0.00 0.00 72 1007.4
20140424034835 87 47 12.0 14.0 0.00 0.00 0.00 74 1007.4
20140424034406 87 53 11.0 13.0 0.00 0.00 0.00 75 1007.4
20140424033914 86 42 12.0 14.0 0.00 0.00 0.00 75 1007.4
20140424033331 87 53 12.0 14.0 0.00 0.00 0.00 75 1007.4
20140424032917 87 33 11.0 13.0 0.00 0.00 0.00 75 1007.7
20140424032406 86 41 11.0 15.0 0.00 0.00 0.00 76 1007.7
20140424031851 86 40 14.0 15.0 0.00 0.00 0.00 76 1007.7
20140424031414 86 46 14.0 15.0 0.00 0.00 0.00 75 1007.9
20140424030857 86 53 12.0 14.0 0.00 0.00 0.00 76 1007.9
20140424030349 86 47 13.0 14.0 0.00 0.00 0.00 76 1007.9
20140424025826 86 44 12.0 13.0 0.00 0.00 0.00 76 1007.9
20140424024900 87 44 12.0 14.0 0.00 0.00 0.00 76 1007.9
20140424024418 87 38 12.0 14.0 0.00 0.00 0.00 74 1008.0
20140424023913 86 49 11.0 14.0 0.00 0.00 0.00 74 1008.0
20140424022904 87 41 11.0 12.0 0.00 0.00 0.00 75 1008.2
20140424022404 87 37 10.0 13.0 0.00 0.00 0.00 75 1008.2
20140424021836 86 39 10.0 13.0 0.00 0.00 0.00 76 1008.2
20140424021356 86 42 12.0 13.0 0.00 0.00 0.00 75 1008.5
20140424020835 86 38 11.0 13.0 0.00 0.00 0.00 75 1008.5
20140424020417 87 37 13.0 14.0 0.00 0.00 0.00 76 1008.5
20140424015912 86 43 11.0 14.0 0.00 0.00 0.00 76 1008.7
20140424015336 86 46 11.0 13.0 0.00 0.00 0.00 75 1008.7
20140424014910 86 46 11.0 13.0 0.00 0.00 0.00 74 1008.7
20140424014328 87 53 12.0 13.0 0.00 0.00 0.00 75 1008.9
20140424013411 87 47 10.0 12.0 0.00 0.00 0.00 74 1008.9
20140424012855 87 46 12.0 12.0 0.00 0.00 0.00 74 1009.0
20140424011920 86 44 12.0 13.0 0.00 0.00 0.00 74 1009.0
20140424011343 86 36 12.0 13.0 0.00 0.00 0.00 74 1009.1
20140424010846 86 42 12.0 13.0 0.00 0.00 0.00 73 1009.1
20140424010414 86 61 11.0 15.0 0.00 0.00 0.00 74 1009.1
20140424005850 86 41 12.0 15.0 0.00 0.00 0.00 75 1009.2
20140424005412 86 42 12.0 14.0 0.00 0.00 0.00 76 1009.2
20140424003900 86 34 11.0 12.0 0.00 0.00 0.00 74 1009.2
20140424003424 86 37 10.0 13.0 0.00 0.00 0.00 75 1009.2
20140424002352 86 51 11.0 12.0 0.00 0.00 0.00 77 1009.5
20140424001842 86 40 11.0 13.0 0.00 0.00 0.00 76 1009.5
20140424001404 86 34 8.0 14.0 0.00 0.00 0.00 75 1009.6
20140424000854 86 38 12.0 14.0 0.00 0.00 0.00 74 1009.6
20140424000333 86 49 12.0 13.0 0.00 0.00 0.00 74 1009.6
20140423235914 86 46 12.0 14.0 0.00 0.00 0.00 74 1009.7
20140423235401 86 36 11.0 14.0 0.00 0.00 0.00 76 1009.7
20140423234846 86 41 11.0 14.0 0.00 0.00 0.00 76 1009.7
20140423234407 86 42 12.0 13.0 0.00 0.00 0.00 75 1009.9
20140423233859 86 51 11.0 13.0 0.00 0.00 0.00 74 1009.9
20140423233419 86 38 11.0 12.0 0.00 0.00 0.00 78 1009.9
20140423232855 86 41 11.0 12.0 0.00 0.00 0.00 78 1010.0
20140423232412 86 40 10.0 14.0 0.00 0.00 0.00 78 1010.0
20140423231851 85 39 11.0 14.0 0.00 0.00 0.00 77 1010.0
20140423231411 85 45 11.0 13.0 0.00 0.00 0.00 77 1010.0
20140423230827 85 50 13.0 13.0 0.00 0.00 0.00 78 1010.0
20140423230412 85 46 12.0 14.0 0.00 0.00 0.00 77 1010.0
20140423225903 85 51 13.0 15.0 0.00 0.00 0.00 77 1009.7
20140423225423 85 45 12.0 15.0 0.00 0.00 0.00 78 1009.7
20140423224844 85 58 12.0 14.0 0.00 0.00 0.00 79 1009.7
20140423224343 85 49 13.0 14.0 0.00 0.00 0.00 78 1009.6
20140423223827 85 55 13.0 14.0 0.00 0.00 0.00 77 1009.6
20140423223404 85 57 12.0 14.0 0.00 0.00 0.00 78 1009.6
20140423222851 85 43 13.0 14.0 0.00 0.00 0.00 77 1009.5
20140423222425 85 63 12.0 13.0 0.00 0.00 0.00 77 1009.5
20140423221848 85 54 12.0 13.0 0.00 0.00 0.00 77 1009.5
20140423221424 85 54 11.0 12.0 0.00 0.00 0.00 77 1009.4
20140423220404 84 51 13.0 13.0 0.00 0.00 0.00 78 1009.4
20140423215843 84 60 12.0 14.0 0.00 0.00 0.00 79 1009.3
20140423215421 84 61 14.0 14.0 0.00 0.00 0.00 81 1009.3
20140423214917 83 67 10.0 12.0 0.00 0.00 0.00 81 1009.3
20140423214347 83 63 11.0 12.0 0.00 0.00 0.00 82 1009.1
20140423213829 83 60 9.0 14.0 0.00 0.00 0.00 80 1009.1
20140423212905 83 51 10.0 15.0 0.00 0.00 0.00 81 1009.0
20140423212358 83 44 12.0 15.0 0.00 0.00 0.00 81 1009.0
20140423211842 83 51 12.0 14.0 0.00 0.00 0.00 81 1009.0
20140423211425 83 55 10.0 12.0 0.00 0.00 0.00 82 1008.9
20140423210404 83 41 11.0 14.0 0.00 0.00 0.00 82 1008.9
20140423205835 83 45 11.0 12.0 0.00 0.00 0.00 82 1008.7
20140423205414 83 36 10.0 13.0 0.00 0.00 0.00 82 1008.7
20140423204842 83 36 11.0 13.0 0.00 0.00 0.00 82 1008.7
20140423204419 82 44 11.0 12.0 0.00 0.00 0.00 81 1008.5
20140423203401 82 49 11.0 13.0 0.00 0.00 0.00 82 1008.5
20140423202842 82 30 12.0 14.0 0.00 0.00 0.00 82 1008.5
20140423202410 82 30 9.0 14.0 0.00 0.00 0.00 83 1008.5
20140423201838 82 45 9.0 11.0 0.00 0.00 0.00 83 1008.5
20140423200921 82 51 9.0 11.0 0.00 0.00 0.00 82 1008.4
20140423200336 82 40 10.0 14.0 0.00 0.00 0.00 82 1008.4
20140423195824 82 50 11.0 14.0 0.00 0.00 0.00 82 1008.3
20140423195409 82 39 9.0 14.0 0.00 0.00 0.00 81 1008.3
20140423194838 82 51 13.0 14.0 0.00 0.00 0.00 81 1008.3
20140423194420 82 49 11.0 12.0 0.00 0.00 0.00 81 1008.2
20140423193854 82 54 9.0 12.0 0.00 0.00 0.00 81 1008.2
20140423193347 82 61 12.0 12.0 0.00 0.00 0.00 81 1008.2
20140423192843 82 46 11.0 12.0 0.00 0.00 0.00 82 1008.0
20140423191924 82 54 10.0 12.0 0.00 0.00 0.00 81 1008.0
20140423191347 82 43 11.0 13.0 0.00 0.00 0.00 81 1007.9
20140423190834 82 51 10.0 13.0 0.00 0.00 0.00 81 1007.9
20140423190410 82 42 8.0 13.0 0.00 0.00 0.00 81 1007.9
20140423185843 82 42 12.0 13.0 0.00 0.00 0.00 81 1007.9
20140423184357 82 45 10.0 13.0 0.00 0.00 0.00 80 1007.8
20140423183843 82 49 10.0 13.0 0.00 0.00 0.00 80 1007.8
20140423183415 82 55 11.0 15.0 0.00 0.00 0.00 81 1007.8
20140423182902 82 38 11.0 15.0 0.00 0.00 0.00 81 1007.8
20140423182420 82 48 11.0 14.0 0.00 0.00 0.00 81 1007.8
20140423181903 82 51 12.0 15.0 0.00 0.00 0.00 80 1007.8
20140423181341 82 61 11.0 16.0 0.00 0.00 0.00 80 1007.7
20140423180825 82 60 14.0 16.0 0.00 0.00 0.00 81 1007.7
20140423175852 82 42 12.0 15.0 0.00 0.00 0.00 80 1007.6
20140423175415 82 49 11.0 14.0 0.00 0.00 0.00 81 1007.6
20140423174851 82 55 12.0 15.0 0.00 0.00 0.00 80 1007.6
20140423174426 82 43 13.0 15.0 0.00 0.00 0.00 80 1007.5
20140423173407 82 45 12.0 15.0 0.00 0.00 0.00 81 1007.5
20140423172834 82 49 13.0 15.0 0.00 0.00 0.00 81 1007.6
20140423172404 82 49 12.0 14.0 0.00 0.00 0.00 81 1007.6
20140423171845 82 49 12.0 14.0 0.00 0.00 0.00 80 1007.6
20140423170907 82 41 13.0 14.0 0.00 0.00 0.00 80 1007.7
20140423170417 83 49 12.0 15.0 0.00 0.00 0.00 80 1007.7
20140423165859 82 62 12.0 15.0 0.00 0.00 0.00 79 1007.9
20140423164357 82 55 14.0 16.0 0.00 0.00 0.00 79 1007.9
20140423163902 82 61 13.0 16.0 0.00 0.00 0.00 79 1007.9
20140423163427 82 56 16.0 16.0 0.00 0.00 0.00 79 1007.9
20140423162350 82 55 15.0 16.0 0.00 0.00 0.00 80 1008.0
20140423161829 82 51 13.0 15.0 0.00 0.00 0.00 79 1008.0
20140423161408 82 57 13.0 16.0 0.00 0.00 0.00 79 1008.0
20140423160844 82 52 12.0 17.0 0.00 0.00 0.00 80 1008.0